Regional Weather Roundup
Issued by NWS Sterling, VA

Home | Current Version | Previous Version | Text Only | Print | Product List | Glossary On
Versions: 1 2 3 4 5 6 7 8 9 10 11 12 13 14 15 16 17 18 19 20 21 22 23 24 25 26 27 28 29 30 31 32 33 34 35 36 37 38 39 40 41 42 43 44 45 46 47 48 49 50
000
ASUS41 KLWX 260711
RWRLWX

REGIONAL WEATHER ROUNDUP
NATIONAL WEATHER SERVICE BALTIMORE MD/WASHINGTON DC
300 AM EDT FRI MAY 26 2017

Note: "FAIR" indicates few or no clouds below 12,000 feet
with no significant weather and/or obstructions to visibility.
 TC=TEMPERATURE CELSIUS

 * =Non NWS site. Station does not report precipitation (e.g. rain,
    snow, etc.), thunder, or fog.

DCZ001-MDZ009-015-VAZ040>042-051-053>054-260800-
WASHINGTON METRO

CITY           SKY/WX    TMP DP  RH WIND       PRES   REMARKS
WASHINGTON NAT PTCLDY    59  57  93 S7        29.61R
DULLES         MOCLDY    54  53  97 CALM      29.61R
ANDREWS AFB    CLEAR     57  56  96 W9        29.60R
FT BELVOIR     PTCLDY    55  54  94 CALM      29.61R FOG
QUANTICO       PTCLDY    59  57  93 NW5       29.63R
COLLEGE PARK*  CLEAR     57  55  94 CALM      29.59R
LEESBURG*      PTCLDY    55  55 100 W3        29.62R
MANASSAS*      CLOUDY    56  55  97 SW3       29.62R
GAITHERSBURG*  CLEAR     55  54  96 CALM      29.61R

$$

MDZ006>007-011-014-260800-
BALTIMORE METRO

CITY           SKY/WX    TMP DP  RH WIND       PRES   REMARKS
BWI AIRPORT    PTCLDY    58  58 100 W10       29.57R
MD SCIENCE CTR   N/A     61  59  93 MISG      29.57R
MARTIN STATE   MOCLDY    61  61 100 SW3       29.57R
ANNAPOLIS      CLEAR     61  60  97 W6        29.58R
FORT MEADE*    CLEAR     55  54  94 SW5       29.61R

$$

MDZ012-015-019>023-260800-
MARYLAND EASTERN SHORE

CITY           SKY/WX    TMP DP  RH WIND       PRES   REMARKS
OCEAN CITY     CLEAR     60  57  89 W10       29.59R
SALISBURY      CLEAR     60  60 100 W9        29.59R
BAY BRIDGE AP* CLEAR     61  59  94 W9        29.58R
CAMBRIDGE*     CLEAR     59  57  94 SW5       29.59S
EASTON*        CLEAR     61  58  91 W5        29.62R

$$

MDZ017>025-260800-
SOUTHERN MARYLAND

CITY           SKY/WX    TMP DP  RH WIND       PRES   REMARKS
PATUXENT RIVER CLEAR     59  58  96 W13       29.60R
ST INIGOES     CLEAR     61  56  83 W9        29.61R
LEONARDTOWN*   CLEAR     57  54  88 SW6       29.63R

$$

MDZ003>005-260800-
NORTH CENTRAL MARYLAND

CITY           SKY/WX    TMP DP  RH WIND       PRES   REMARKS
FREDERICK*     PTCLDY    59  59 100 S3        29.61S
HAGERSTOWN APT CLOUDY    59  55  87 SW6       29.58S
WESTMINSTER*   CLEAR     57  57 100 W6        29.58R

$$

MDZ501>502-260800-
WESTERN MARYLAND

CITY           SKY/WX    TMP DP  RH WIND       PRES   REMARKS
OAKLAND*       FOG       50  50 100 W7        29.66R VSB 1/4
CUMBERLAND*    CLOUDY    61  54  77 CALM      29.65R

$$

VAZ025>031-260800-
SHENANDOAH VALLEY

CITY           SKY/WX    TMP DP  RH WIND       PRES   REMARKS
WINCHESTER*    LGT RAIN  55  54  94 SW5       29.62R
FRONT ROYAL*   CLOUDY    55  54  94 S5        29.61R
LURAY*         MOCLDY    54  54 100 S3          N/A
NEW MARKET*    CLOUDY    55  54  95 SW3       29.64R
STAUNTON*      PTCLDY    54  51  89 SW3       29.67S
WAYNESBORO*    CLEAR     57  55  91 SW8       29.67R

$$

WVZ021-048>050-054>055-260800-
EASTERN WEST VIRGINIA PANHANDLE

CITY           SKY/WX    TMP DP  RH WIND       PRES   REMARKS
MARTINSBURG    LGT RAIN  58  53  84 SW3       29.60R
PETERSBURG*    CLOUDY    58  56  90 SE6       29.64R

$$

VAZ036>039-050-260800-
CENTRAL FOOTHILLS

CITY           SKY/WX    TMP DP  RH WIND       PRES   REMARKS
CHARLOTTESVILL CLEAR     62  52  69 VRB3      29.64R
CULPEPER*      CLOUDY    56  56 100 CALM      29.63S
ORANGE*        CLOUDY    54  54 100 CALM      29.64R
GORDONSVILLE*  MOCLDY    58  54  88 SW5       29.64R
WARRENTON*     CLOUDY    57  53  88 SW3       29.62R

$$

VAZ055>057-260800-
NORTH AND CENTRAL PIEDMONT

CITY           SKY/WX    TMP DP  RH WIND       PRES   REMARKS
FREDERICKSBRG* CLOUDY    58  58 100 SW6       29.62R
STAFFORD*      CLOUDY    56  56 100 SW5       29.66R

$$

NCZ024-NYZ072-PAZ021-071-VAZ022-071-260800-
OTHER REGIONAL OBSERVATIONS

CITY           SKY/WX    TMP DP  RH WIND       PRES   REMARKS
NEW YORK CITY  LGT RAIN  57  56  96 CALM      29.49R
PHILADELPHIA   LGT RAIN  59  57  93 W8        29.53R
PITTSBURGH     CLOUDY    57  57 100 W6        29.63R
ROANOKE        CLOUDY    64  51  62 W8        29.76R
RICHMOND       PTCLDY    59  55  87 W13       29.67R
RALEIGH        PTCLDY    60  54  80 W8        29.80R

$$

ANZ530>537-260800-
MARINE OBSERVATIONS

STATION/POSITION TIME  TEMP    WIND        PRES
                       AIR SEA DIR/SP/G
                 (UTC) (F)     (DEG/KT/KT) (MB)
THOMAS PT LIGHT  0700   61 64  260/ 15/ 17   N/A
BALT KEY BRIDGE  0648   61     260/  7/  9 1001.2R
COVE POINT       0648   60     270/ 12/ 15 1002.9R
LEWISETTA        0648   62 67  270/ 11/ 14 1002.8R
SOLOMONS ISLAND  0648   60 66  240/ 11/ 14   N/A
PINEY POINT      0648          300/ 11/ 13   N/A

$$




USA.gov is the U.S. government's official web portal to all federal, state and local government web resources and services.